| time (UTC) | temp F | wind direction | speed MPH | gust MPH | rain 1hr in | rain 24hr in | rain mn in | humidity % | barometer mb |
| 20260905140931 | 73 | 154 | 0.0 | 0.0 | 0.00 | 0.00 | 0.00 | 95 | 1016.2 |
| 20260905140426 | 72 | 165 | 0.0 | 0.0 | 0.00 | 0.00 | 0.00 | 96 | 1016.0 |
| 20260905135924 | 72 | 158 | 1.0 | 1.0 | 0.00 | 0.00 | 0.00 | 98 | 1016.1 |
| 20260905135419 | 72 | 141 | 0.0 | 0.0 | 0.00 | 0.00 | 0.00 | 98 | 1016.2 |
| 20260905134915 | 72 | 161 | 0.0 | 0.0 | 0.00 | 0.00 | 0.00 | 98 | 1016.0 |
| 20260905134409 | 71 | 161 | 1.0 | 1.0 | 0.00 | 0.00 | 0.00 | 98 | 1016.3 |
| 20260905133903 | 71 | 150 | 0.0 | 0.0 | 0.00 | 0.00 | 0.00 | 99 | 1016.2 |
| 20260905133358 | 71 | 150 | 0.0 | 0.0 | 0.00 | 0.00 | 0.00 | 99 | 1016.1 |
| 20260905132857 | 71 | 144 | 0.0 | 0.0 | 0.00 | 0.00 | 0.00 | 98 | 1016.0 |
| 20260905132352 | 71 | 146 | 0.0 | 0.0 | 0.00 | 0.00 | 0.00 | 99 | 1016.3 |
| 20260905131847 | 71 | 128 | 0.0 | 0.0 | 0.00 | 0.00 | 0.00 | 99 | 1016.1 |
| 20260905131343 | 71 | 151 | 1.0 | 1.0 | 0.00 | 0.00 | 0.00 | 99 | 1016.2 |
| 20260905130837 | 70 | 140 | 0.0 | 0.0 | 0.00 | 0.00 | 0.00 | 99 | 1016.2 |
| 20260905130336 | 70 | 148 | 2.0 | 2.0 | 0.00 | 0.00 | 0.00 | 99 | 1016.2 |
| 20260905125832 | 70 | 183 | 1.0 | 1.0 | 0.00 | 0.00 | 0.00 | 99 | 1016.0 |
| 20260905125326 | 70 | 117 | 0.0 | 0.0 | 0.00 | 0.00 | 0.00 | 99 | 1016.2 |
| 20260905124822 | 70 | 90 | 2.0 | 2.0 | 0.00 | 0.00 | 0.00 | 99 | 1016.3 |
| 20260905124319 | 70 | 123 | 1.0 | 1.0 | 0.00 | 0.00 | 0.00 | 99 | 1016.2 |
| 20260905123819 | 70 | 136 | 0.0 | 0.0 | 0.00 | 0.00 | 0.00 | 99 | 1016.3 |
| 20260905123316 | 70 | 175 | 0.0 | 0.0 | 0.00 | 0.00 | 0.00 | 99 | 1016.3 |
| 20260905122815 | 69 | 214 | 0.0 | 0.0 | 0.00 | 0.00 | 0.00 | 99 | 1016.5 |
| 20260905122314 | 69 | 175 | 0.0 | 0.0 | 0.00 | 0.00 | 0.00 | 99 | 1016.5 |
| 20260905121810 | 69 | 112 | 0.0 | 0.0 | 0.00 | 0.00 | 0.00 | 99 | 1016.1 |
| 20260905121307 | 69 | 121 | 0.0 | 0.0 | 0.00 | 0.00 | 0.00 | 99 | 1015.8 |
| 20260905120805 | 69 | 133 | 1.0 | 1.0 | 0.00 | 0.00 | 0.00 | 99 | 1015.8 |
| 20260905120300 | 68 | 141 | 0.0 | 0.0 | 0.00 | 0.00 | 0.00 | 99 | 1016.0 |
| 20260905115754 | 68 | 141 | 0.0 | 0.0 | 0.00 | 0.00 | 0.00 | 99 | 1016.0 |
| 20260905115249 | 68 | 141 | 0.0 | 0.0 | 0.00 | 0.00 | 0.00 | 99 | 1015.9 |
| 20260905114748 | 68 | 141 | 0.0 | 0.0 | 0.00 | 0.00 | 0.00 | 99 | 1015.8 |
| 20260905114248 | 68 | 141 | 0.0 | 0.0 | 0.00 | 0.00 | 0.00 | 99 | 1015.8 |
| 20260905113747 | 68 | 140 | 0.0 | 0.0 | 0.00 | 0.00 | 0.00 | 99 | 1015.7 |
| 20260905113243 | 68 | 140 | 0.0 | 0.0 | 0.00 | 0.00 | 0.00 | 99 | 1015.7 |
| 20260905112738 | 68 | 141 | 0.0 | 0.0 | 0.00 | 0.00 | 0.00 | 99 | 1015.7 |
| 20260905112238 | 68 | 139 | 0.0 | 0.0 | 0.00 | 0.00 | 0.00 | 99 | 1015.7 |
| 20260905111733 | 68 | 139 | 0.0 | 0.0 | 0.00 | 0.00 | 0.00 | 99 | 1015.9 |
| 20260905111232 | 68 | 139 | 0.0 | 0.0 | 0.00 | 0.00 | 0.00 | 99 | 1016.0 |
| 20260905110732 | 67 | 140 | 0.0 | 0.0 | 0.00 | 0.00 | 0.00 | 99 | 1015.9 |
| 20260905110226 | 67 | 140 | 0.0 | 0.0 | 0.00 | 0.00 | 0.00 | 99 | 1016.2 |
| 20260905105722 | 67 | 140 | 0.0 | 0.0 | 0.00 | 0.00 | 0.00 | 99 | 1016.0 |
| 20260905105221 | 67 | 140 | 0.0 | 0.0 | 0.00 | 0.00 | 0.00 | 99 | 1015.9 |
| 20260905104715 | 68 | 138 | 0.0 | 0.0 | 0.00 | 0.00 | 0.00 | 99 | 1016.2 |
| 20260905104212 | 67 | 140 | 0.0 | 0.0 | 0.00 | 0.00 | 0.00 | 99 | 1016.5 |
| 20260905103707 | 67 | 140 | 0.0 | 0.0 | 0.00 | 0.00 | 0.00 | 99 | 1016.3 |
| 20260905103202 | 67 | 140 | 0.0 | 0.0 | 0.00 | 0.00 | 0.00 | 99 | 1016.8 |
| 20260905102658 | 67 | 140 | 0.0 | 0.0 | 0.00 | 0.00 | 0.00 | 99 | 1016.8 |
| 20260905102154 | 67 | 140 | 0.0 | 0.0 | 0.00 | 0.00 | 0.00 | 99 | 1016.8 |
| 20260905101653 | 67 | 140 | 0.0 | 0.0 | 0.00 | 0.00 | 0.00 | 99 | 1016.9 |
| 20260905101151 | 67 | 140 | 0.0 | 0.0 | 0.00 | 0.00 | 0.00 | 99 | 1017.0 |
| 20260905100648 | 67 | 140 | 0.0 | 0.0 | 0.00 | 0.00 | 0.00 | 99 | 1016.9 |
| 20260905100142 | 67 | 140 | 0.0 | 0.0 | 0.00 | 0.00 | 0.00 | 99 | 1017.0 |
| 20260905095636 | 67 | 140 | 0.0 | 0.0 | 0.00 | 0.00 | 0.00 | 99 | 1016.8 |
| 20260905095126 | 67 | 141 | 0.0 | 0.0 | 0.00 | 0.00 | 0.00 | 99 | 1016.7 |
| 20260905094621 | 67 | 140 | 0.0 | 0.0 | 0.00 | 0.00 | 0.00 | 99 | 1016.6 |
| 20260905094120 | 67 | 139 | 0.0 | 0.0 | 0.00 | 0.00 | 0.00 | 99 | 1016.2 |
| 20260905093614 | 67 | 147 | 0.0 | 0.0 | 0.00 | 0.00 | 0.00 | 99 | 1016.3 |
| 20260905093111 | 67 | 147 | 0.0 | 0.0 | 0.00 | 0.00 | 0.00 | 99 | 1016.0 |
| 20260905092605 | 67 | 136 | 0.0 | 0.0 | 0.00 | 0.00 | 0.00 | 99 | 1015.8 |
| 20260905092101 | 66 | 135 | 0.0 | 0.0 | 0.00 | 0.00 | 0.00 | 99 | 1015.7 |
| 20260905091600 | 66 | 135 | 0.0 | 0.0 | 0.00 | 0.00 | 0.00 | 99 | 1015.5 |
| 20260905091055 | 66 | 135 | 0.0 | 0.0 | 0.00 | 0.00 | 0.00 | 99 | 1015.5 |
| 20260905090555 | 66 | 134 | 0.0 | 0.0 | 0.00 | 0.00 | 0.00 | 99 | 1015.5 |
| 20260905090050 | 66 | 134 | 0.0 | 0.0 | 0.00 | 0.00 | 0.00 | 99 | 1015.4 |
| 20260905085548 | 66 | 176 | 0.0 | 0.0 | 0.00 | 0.00 | 0.00 | 98 | 1015.4 |
| 20260905085044 | 66 | 176 | 0.0 | 0.0 | 0.00 | 0.00 | 0.00 | 99 | 1015.8 |
| 20260905084543 | 66 | 176 | 0.0 | 0.0 | 0.00 | 0.00 | 0.00 | 98 | 1015.7 |
| 20260905084038 | 66 | 176 | 0.0 | 0.0 | 0.00 | 0.00 | 0.00 | 98 | 1015.7 |
| 20260905083533 | 66 | 176 | 0.0 | 0.0 | 0.00 | 0.00 | 0.00 | 98 | 1015.4 |
| 20260905083031 | 66 | 176 | 0.0 | 0.0 | 0.00 | 0.00 | 0.00 | 99 | 1015.1 |
| 20260905082525 | 66 | 176 | 0.0 | 0.0 | 0.00 | 0.00 | 0.00 | 98 | 1015.1 |
| 20260905082021 | 66 | 176 | 0.0 | 0.0 | 0.00 | 0.00 | 0.00 | 98 | 1015.1 |
| 20260905081514 | 66 | 176 | 0.0 | 0.0 | 0.00 | 0.00 | 0.00 | 98 | 1015.0 |
| 20260905081009 | 66 | 176 | 0.0 | 0.0 | 0.00 | 0.00 | 0.00 | 98 | 1014.9 |
| 20260905080503 | 66 | 176 | 0.0 | 0.0 | 0.00 | 0.00 | 0.00 | 98 | 1014.9 |
| 20260905080003 | 66 | 176 | 0.0 | 0.0 | 0.00 | 0.00 | 0.00 | 98 | 1015.1 |
| 20260905075457 | 66 | 176 | 0.0 | 0.0 | 0.00 | 0.00 | 0.00 | 98 | 1015.5 |
| 20260905074955 | 66 | 176 | 0.0 | 0.0 | 0.00 | 0.00 | 0.00 | 98 | 1015.5 |
| 20260905074451 | 66 | 176 | 0.0 | 0.0 | 0.00 | 0.00 | 0.00 | 98 | 1015.2 |
| 20260905073942 | 66 | 176 | 0.0 | 0.0 | 0.00 | 0.00 | 0.00 | 98 | 1015.3 |
| 20260905073436 | 66 | 176 | 0.0 | 0.0 | 0.00 | 0.00 | 0.00 | 98 | 1015.1 |
| 20260905072932 | 66 | 176 | 0.0 | 0.0 | 0.00 | 0.00 | 0.00 | 98 | 1015.3 |
| 20260905072427 | 66 | 176 | 0.0 | 0.0 | 0.00 | 0.00 | 0.00 | 98 | 1015.0 |
| 20260905071923 | 66 | 176 | 0.0 | 0.0 | 0.00 | 0.00 | 0.00 | 98 | 1015.6 |
| 20260905071419 | 66 | 176 | 0.0 | 0.0 | 0.00 | 0.00 | 0.00 | 98 | 1015.3 |
| 20260905070918 | 67 | 176 | 0.0 | 0.0 | 0.00 | 0.00 | 0.00 | 98 | 1015.3 |
| 20260905070415 | 67 | 176 | 0.0 | 0.0 | 0.00 | 0.00 | 0.00 | 98 | 1015.3 |
| 20260905065909 | 67 | 176 | 0.0 | 0.0 | 0.00 | 0.00 | 0.00 | 98 | 1015.5 |
| 20260905065407 | 67 | 177 | 0.0 | 0.0 | 0.00 | 0.00 | 0.00 | 98 | 1015.4 |
| 20260905064903 | 67 | 177 | 0.0 | 0.0 | 0.00 | 0.00 | 0.00 | 98 | 1015.4 |
| 20260905064358 | 67 | 154 | 1.0 | 1.0 | 0.00 | 0.00 | 0.00 | 98 | 1015.5 |
| 20260905063856 | 67 | 112 | 0.0 | 0.0 | 0.00 | 0.00 | 0.00 | 98 | 1015.4 |
| 20260905063352 | 67 | 112 | 0.0 | 0.0 | 0.00 | 0.00 | 0.00 | 98 | 1015.4 |
| 20260905062848 | 67 | 111 | 0.0 | 0.0 | 0.00 | 0.00 | 0.00 | 98 | 1015.5 |
| 20260905062343 | 68 | 111 | 0.0 | 0.0 | 0.00 | 0.00 | 0.00 | 98 | 1015.8 |
| 20260905061837 | 67 | 112 | 0.0 | 0.0 | 0.00 | 0.00 | 0.00 | 98 | 1015.9 |
| 20260905061332 | 68 | 112 | 0.0 | 0.0 | 0.00 | 0.00 | 0.00 | 98 | 1015.8 |
| 20260905060826 | 68 | 112 | 0.0 | 0.0 | 0.00 | 0.00 | 0.00 | 98 | 1015.8 |
| 20260905060323 | 68 | 112 | 0.0 | 0.0 | 0.00 | 0.00 | 0.00 | 98 | 1016.1 |
| 20260905055822 | 68 | 112 | 0.0 | 0.0 | 0.00 | 0.00 | 0.00 | 98 | 1016.2 |
| 20260905055317 | 68 | 112 | 0.0 | 0.0 | 0.00 | 0.00 | 0.00 | 98 | 1016.3 |
| 20260905054816 | 68 | 112 | 0.0 | 0.0 | 0.00 | 0.00 | 0.00 | 98 | 1016.3 |
| 20260905054313 | 68 | 112 | 0.0 | 0.0 | 0.00 | 0.00 | 0.00 | 98 | 1016.3 |
| 20260905053812 | 68 | 112 | 0.0 | 0.0 | 0.00 | 0.00 | 0.00 | 98 | 1016.3 |
| 20260905053308 | 68 | 112 | 0.0 | 0.0 | 0.00 | 0.00 | 0.00 | 98 | 1016.5 |
| 20260905052808 | 68 | 112 | 0.0 | 0.0 | 0.00 | 0.00 | 0.00 | 98 | 1016.6 |
| 20260905052306 | 68 | 111 | 0.0 | 0.0 | 0.00 | 0.00 | 0.00 | 98 | 1016.8 |
| 20260905051801 | 68 | 111 | 0.0 | 0.0 | 0.00 | 0.00 | 0.00 | 98 | 1016.7 |
| 20260905051258 | 68 | 111 | 0.0 | 0.0 | 0.00 | 0.00 | 0.00 | 98 | 1016.9 |
| 20260905050755 | 68 | 112 | 0.0 | 0.0 | 0.00 | 0.00 | 0.00 | 98 | 1016.8 |
| 20260905050251 | 68 | 112 | 0.0 | 0.0 | 0.00 | 0.00 | 0.00 | 98 | 1016.5 |
| 20260905045751 | 68 | 111 | 0.0 | 0.0 | 0.00 | 0.00 | 0.00 | 98 | 1016.6 |
| 20260905045246 | 68 | 111 | 0.0 | 0.0 | 0.00 | 0.00 | 0.00 | 98 | 1017.0 |
| 20260905044741 | 67 | 111 | 0.0 | 0.0 | 0.00 | 0.00 | 0.00 | 98 | 1016.7 |
| 20260905044236 | 67 | 111 | 0.0 | 0.0 | 0.00 | 0.00 | 0.00 | 98 | 1017.0 |
| 20260905043735 | 67 | 111 | 0.0 | 0.0 | 0.00 | 0.00 | 0.00 | 98 | 1016.8 |
| 20260905043235 | 67 | 111 | 0.0 | 0.0 | 0.00 | 0.00 | 0.00 | 98 | 1016.9 |
| 20260905042730 | 67 | 111 | 0.0 | 0.0 | 0.00 | 0.00 | 0.00 | 98 | 1016.6 |
| 20260905042229 | 67 | 111 | 0.0 | 0.0 | 0.00 | 0.00 | 0.00 | 98 | 1016.9 |
| 20260905041725 | 67 | 111 | 0.0 | 0.0 | 0.00 | 0.00 | 0.00 | 98 | 1016.7 |
| 20260905041220 | 67 | 111 | 0.0 | 0.0 | 0.00 | 0.00 | 0.00 | 98 | 1016.8 |
| 20260905040715 | 67 | 111 | 0.0 | 0.0 | 0.00 | 0.00 | 0.00 | 98 | 1016.8 |
| 20260905040215 | 68 | 111 | 0.0 | 0.0 | 0.00 | 0.00 | 0.00 | 98 | 1016.8 |
| 20260905035714 | 68 | 111 | 0.0 | 0.0 | 0.00 | 0.15 | 0.15 | 98 | 1016.7 |
| 20260905035211 | 68 | 112 | 0.0 | 0.0 | 0.00 | 0.15 | 0.15 | 98 | 1016.8 |
| 20260905034707 | 68 | 111 | 0.0 | 0.0 | 0.00 | 0.15 | 0.15 | 98 | 1016.8 |
| 20260905034206 | 68 | 111 | 0.0 | 0.0 | 0.00 | 0.15 | 0.15 | 98 | 1016.6 |
| 20260905033705 | 68 | 111 | 0.0 | 0.0 | 0.00 | 0.15 | 0.15 | 98 | 1016.8 |
| 20260905033201 | 68 | 112 | 0.0 | 0.0 | 0.00 | 0.15 | 0.15 | 98 | 1016.8 |
| 20260905032655 | 68 | 112 | 0.0 | 0.0 | 0.00 | 0.15 | 0.15 | 98 | 1016.7 |
| 20260905032150 | 68 | 112 | 0.0 | 0.0 | 0.00 | 0.15 | 0.15 | 98 | 1016.7 |
| 20260905031646 | 68 | 111 | 0.0 | 0.0 | 0.00 | 0.15 | 0.15 | 98 | 1016.7 |
| 20260905031141 | 68 | 111 | 0.0 | 0.0 | 0.00 | 0.15 | 0.15 | 98 | 1016.7 |
| 20260905030636 | 68 | 111 | 0.0 | 0.0 | 0.00 | 0.15 | 0.15 | 98 | 1016.7 |
| 20260905030131 | 68 | 111 | 0.0 | 0.0 | 0.00 | 0.15 | 0.15 | 97 | 1016.7 |
| 20260905025626 | 68 | 111 | 0.0 | 0.0 | 0.00 | 0.15 | 0.15 | 97 | 1016.6 |
| 20260905025122 | 68 | 111 | 0.0 | 0.0 | 0.00 | 0.15 | 0.15 | 97 | 1016.5 |
| 20260905024618 | 68 | 111 | 0.0 | 0.0 | 0.00 | 0.15 | 0.15 | 97 | 1016.8 |
| 20260905024113 | 68 | 111 | 0.0 | 0.0 | 0.00 | 0.15 | 0.15 | 97 | 1016.7 |
| 20260905023608 | 68 | 111 | 0.0 | 0.0 | 0.00 | 0.15 | 0.15 | 97 | 1016.6 |
| 20260905023102 | 68 | 111 | 0.0 | 0.0 | 0.00 | 0.15 | 0.15 | 97 | 1016.9 |
| 20260905022601 | 68 | 111 | 0.0 | 0.0 | 0.00 | 0.15 | 0.15 | 97 | 1016.6 |
| 20260905022057 | 69 | 111 | 0.0 | 0.0 | 0.00 | 0.15 | 0.15 | 97 | 1016.9 |
| 20260905021556 | 68 | 111 | 0.0 | 0.0 | 0.00 | 0.15 | 0.15 | 97 | 1016.7 |
| 20260905021052 | 68 | 111 | 0.0 | 0.0 | 0.00 | 0.15 | 0.15 | 97 | 1016.7 |
| 20260905020551 | 68 | 111 | 0.0 | 0.0 | 0.00 | 0.15 | 0.15 | 97 | 1016.8 |
| 20260905020046 | 69 | 111 | 0.0 | 0.0 | 0.00 | 0.15 | 0.15 | 97 | 1016.7 |
| 20260905015544 | 69 | 111 | 0.0 | 0.0 | 0.00 | 0.15 | 0.15 | 97 | 1016.6 |
| 20260905015034 | 69 | 111 | 0.0 | 0.0 | 0.00 | 0.15 | 0.15 | 97 | 1016.6 |
| 20260905014528 | 69 | 111 | 0.0 | 0.0 | 0.00 | 0.15 | 0.15 | 97 | 1016.5 |
| 20260905014024 | 69 | 111 | 0.0 | 0.0 | 0.00 | 0.15 | 0.15 | 97 | 1016.8 |
| 20260905013520 | 69 | 111 | 0.0 | 0.0 | 0.00 | 0.15 | 0.15 | 97 | 1016.7 |
| 20260905013016 | 69 | 111 | 0.0 | 0.0 | 0.00 | 0.15 | 0.15 | 97 | 1016.9 |
| 20260905012510 | 69 | 110 | 0.0 | 0.0 | 0.00 | 0.15 | 0.15 | 97 | 1016.9 |
| 20260905012007 | 69 | 111 | 0.0 | 0.0 | 0.00 | 0.15 | 0.15 | 97 | 1016.9 |
| 20260905011503 | 70 | 111 | 0.0 | 0.0 | 0.00 | 0.15 | 0.15 | 96 | 1016.9 |
| 20260905010958 | 70 | 111 | 0.0 | 0.0 | 0.00 | 0.15 | 0.15 | 96 | 1016.8 |
| 20260905010457 | 70 | 111 | 0.0 | 0.0 | 0.00 | 0.15 | 0.15 | 96 | 1016.9 |
| 20260905005954 | 70 | 109 | 0.0 | 0.0 | 0.00 | 0.15 | 0.15 | 96 | 1016.7 |
| 20260905005449 | 70 | 109 | 0.0 | 0.0 | 0.00 | 0.15 | 0.15 | 96 | 1016.7 |
| 20260905004944 | 70 | 108 | 0.0 | 0.0 | 0.00 | 0.15 | 0.15 | 96 | 1016.7 |
| 20260905004439 | 70 | 108 | 0.0 | 0.0 | 0.00 | 0.15 | 0.15 | 96 | 1016.8 |
| 20260905003934 | 71 | 108 | 0.0 | 0.0 | 0.00 | 0.15 | 0.15 | 96 | 1016.7 |
| 20260905003430 | 71 | 108 | 0.0 | 0.0 | 0.00 | 0.15 | 0.15 | 96 | 1016.7 |
| 20260905002926 | 71 | 108 | 0.0 | 0.0 | 0.00 | 0.15 | 0.15 | 96 | 1016.7 |
| 20260905002425 | 71 | 108 | 0.0 | 0.0 | 0.00 | 0.15 | 0.15 | 95 | 1016.7 |
| 20260905001920 | 71 | 107 | 0.0 | 0.0 | 0.00 | 0.15 | 0.15 | 95 | 1016.8 |
| 20260905001415 | 72 | 28 | 0.0 | 1.0 | 0.00 | 0.15 | 0.15 | 95 | 1016.9 |
| 20260905000909 | 72 | 145 | 0.0 | 0.0 | 0.00 | 0.15 | 0.15 | 95 | 1016.5 |
| 20260905000405 | 72 | 145 | 0.0 | 0.0 | 0.00 | 0.15 | 0.15 | 94 | 1017.0 |
| 20260904235900 | 73 | 168 | 0.0 | 0.0 | 0.00 | 0.15 | 0.15 | 94 | 1016.7 |
| 20260904235355 | 73 | 306 | 0.0 | 0.0 | 0.00 | 0.15 | 0.15 | 94 | 1016.6 |
| 20260904234850 | 73 | 306 | 0.0 | 0.0 | 0.00 | 0.15 | 0.15 | 94 | 1016.5 |
| 20260904234345 | 74 | 306 | 0.0 | 0.0 | 0.00 | 0.15 | 0.15 | 94 | 1016.9 |
| 20260904233841 | 74 | 307 | 0.0 | 0.0 | 0.00 | 0.15 | 0.15 | 93 | 1016.9 |
| 20260904233336 | 74 | 307 | 0.0 | 0.0 | 0.00 | 0.15 | 0.15 | 93 | 1016.8 |
| 20260904232833 | 74 | 334 | 0.0 | 0.0 | 0.00 | 0.15 | 0.15 | 93 | 1016.9 |
| 20260904232329 | 75 | 334 | 0.0 | 0.0 | 0.00 | 0.15 | 0.15 | 93 | 1017.0 |
| 20260904231824 | 75 | 333 | 0.0 | 0.0 | 0.00 | 0.15 | 0.15 | 92 | 1016.9 |
| 20260904231319 | 75 | 192 | 1.0 | 1.0 | 0.00 | 0.15 | 0.15 | 91 | 1016.6 |
| 20260904230815 | 75 | 149 | 1.0 | 1.0 | 0.00 | 0.15 | 0.15 | 91 | 1016.6 |
| 20260904230313 | 75 | 81 | 0.0 | 0.0 | 0.00 | 0.15 | 0.15 | 90 | 1017.1 |
| 20260904225808 | 76 | 81 | 0.0 | 0.0 | 0.00 | 0.15 | 0.15 | 91 | 1016.9 |
| 20260904225307 | 76 | 79 | 0.0 | 0.0 | 0.00 | 0.15 | 0.15 | 90 | 1017.1 |
| 20260904224806 | 76 | 79 | 0.0 | 0.0 | 0.00 | 0.15 | 0.15 | 89 | 1017.0 |
| 20260904224302 | 76 | 79 | 0.0 | 0.0 | 0.00 | 0.15 | 0.15 | 88 | 1016.8 |
| 20260904223801 | 76 | 79 | 0.0 | 0.0 | 0.00 | 0.15 | 0.15 | 88 | 1016.8 |
| 20260904223301 | 77 | 329 | 0.0 | 0.0 | 0.00 | 0.15 | 0.15 | 87 | 1016.9 |
| 20260904222758 | 77 | 329 | 0.0 | 0.0 | 0.00 | 0.15 | 0.15 | 86 | 1016.5 |
| 20260904222252 | 77 | 329 | 0.0 | 0.0 | 0.00 | 0.15 | 0.15 | 86 | 1016.6 |
| 20260904221747 | 77 | 329 | 0.0 | 0.0 | 0.00 | 0.15 | 0.15 | 84 | 1016.2 |
| 20260904221247 | 77 | 329 | 0.0 | 0.0 | 0.00 | 0.15 | 0.15 | 84 | 1016.3 |
| 20260904220742 | 77 | 329 | 0.0 | 0.0 | 0.00 | 0.15 | 0.15 | 85 | 1016.2 |
| 20260904220236 | 77 | 329 | 0.0 | 0.0 | 0.00 | 0.15 | 0.15 | 85 | 1016.1 |
| 20260904215731 | 77 | 329 | 0.0 | 0.0 | 0.00 | 0.15 | 0.15 | 85 | 1016.1 |
| 20260904215221 | 77 | 329 | 0.0 | 1.0 | 0.00 | 0.15 | 0.15 | 84 | 1015.9 |
| 20260904214716 | 78 | 65 | 0.0 | 0.0 | 0.00 | 0.15 | 0.15 | 83 | 1016.0 |
| 20260904214212 | 78 | 37 | 0.0 | 0.0 | 0.00 | 0.15 | 0.15 | 82 | 1015.7 |
| 20260904213709 | 78 | 36 | 0.0 | 0.0 | 0.00 | 0.15 | 0.15 | 80 | 1016.0 |
| 20260904213201 | 78 | 345 | 1.0 | 1.0 | 0.00 | 0.15 | 0.15 | 79 | 1015.5 |
| 20260904212700 | 78 | 84 | 0.0 | 0.0 | 0.00 | 0.15 | 0.15 | 81 | 1015.7 |
| 20260904212155 | 78 | 134 | 0.0 | 0.0 | 0.00 | 0.15 | 0.15 | 82 | 1015.6 |
| 20260904211655 | 78 | 166 | 0.0 | 0.0 | 0.00 | 0.15 | 0.15 | 81 | 1015.6 |
| 20260904211151 | 78 | 117 | 0.0 | 0.0 | 0.00 | 0.15 | 0.15 | 81 | 1015.3 |
| 20260904210651 | 78 | 117 | 0.0 | 0.0 | 0.00 | 0.15 | 0.15 | 82 | 1015.8 |
| 20260904210146 | 78 | 157 | 0.0 | 0.0 | 0.00 | 0.15 | 0.15 | 82 | 1015.4 |
| 20260904205642 | 78 | 164 | 1.0 | 1.0 | 0.00 | 0.15 | 0.15 | 78 | 1015.1 |
| 20260904205138 | 78 | 304 | 2.0 | 2.0 | 0.00 | 0.15 | 0.15 | 80 | 1015.1 |
| 20260904204634 | 78 | 162 | 2.0 | 2.0 | 0.00 | 0.15 | 0.15 | 82 | 1015.0 |
| 20260904204130 | 78 | 151 | 0.0 | 0.0 | 0.00 | 0.15 | 0.15 | 79 | 1014.9 |
| 20260904203626 | 78 | 116 | 0.0 | 0.0 | 0.00 | 0.15 | 0.15 | 79 | 1014.9 |
| 20260904203122 | 78 | 181 | 0.0 | 0.0 | 0.00 | 0.15 | 0.15 | 78 | 1015.1 |
| 20260904202618 | 78 | 135 | 0.0 | 0.0 | 0.00 | 0.15 | 0.15 | 79 | 1015.0 |
| 20260904202114 | 78 | 156 | 1.0 | 1.0 | 0.00 | 0.15 | 0.15 | 79 | 1015.2 |
| 20260904201609 | 79 | 152 | 3.0 | 2.0 | 0.00 | 0.15 | 0.15 | 74 | 1015.4 |
| 20260904201103 | 79 | 178 | 1.0 | 1.0 | 0.00 | 0.15 | 0.15 | 75 | 1015.5 |
| 20260904200602 | 79 | 330 | 2.0 | 2.0 | 0.00 | 0.15 | 0.15 | 74 | 1015.8 |
| 20260904200057 | 79 | 295 | 1.0 | 1.0 | 0.00 | 0.15 | 0.15 | 77 | 1016.1 |
| 20260904195556 | 79 | 123 | 1.0 | 1.0 | 0.00 | 0.15 | 0.15 | 76 | 1016.0 |
| 20260904195050 | 79 | 145 | 2.0 | 2.0 | 0.00 | 0.15 | 0.15 | 77 | 1016.3 |
| 20260904194545 | 79 | 119 | 0.0 | 0.0 | 0.00 | 0.15 | 0.15 | 78 | 1016.3 |
| 20260904194039 | 78 | 89 | 1.0 | 1.0 | 0.00 | 0.15 | 0.15 | 79 | 1016.6 |
| 20260904193534 | 78 | 180 | 1.0 | 1.0 | 0.00 | 0.15 | 0.15 | 82 | 1016.6 |
| 20260904193031 | 77 | 145 | 1.0 | 1.0 | 0.00 | 0.15 | 0.15 | 82 | 1016.9 |
| 20260904192529 | 77 | 161 | 1.0 | 1.0 | 0.00 | 0.15 | 0.15 | 80 | 1016.5 |
| 20260904192026 | 76 | 111 | 1.0 | 1.0 | 0.00 | 0.15 | 0.15 | 82 | 1016.6 |
| 20260904191522 | 76 | 154 | 1.0 | 1.0 | 0.00 | 0.15 | 0.15 | 82 | 1016.9 |
| 20260904191019 | 76 | 107 | 1.0 | 2.0 | 0.00 | 0.15 | 0.15 | 85 | 1017.2 |
| 20260904190514 | 75 | 152 | 1.0 | 1.0 | 0.00 | 0.15 | 0.15 | 85 | 1017.1 |
| 20260904190010 | 74 | 94 | 0.0 | 0.0 | 0.00 | 0.15 | 0.15 | 88 | 1017.1 |
| 20260904185506 | 74 | 124 | 0.0 | 0.0 | 0.00 | 0.15 | 0.15 | 90 | 1017.3 |
| 20260904185000 | 74 | 55 | 1.0 | 1.0 | 0.00 | 0.15 | 0.15 | 91 | 1016.9 |
| 20260904184455 | 73 | 172 | 1.0 | 1.0 | 0.00 | 0.15 | 0.15 | 91 | 1016.8 |
| 20260904183950 | 73 | 108 | 0.0 | 1.0 | 0.00 | 0.15 | 0.15 | 92 | 1017.1 |
| 20260904183445 | 73 | 145 | 0.0 | 0.0 | 0.00 | 0.15 | 0.15 | 94 | 1017.2 |
| 20260904182940 | 73 | 164 | 1.0 | 1.0 | 0.00 | 0.15 | 0.15 | 93 | 1016.8 |
| 20260904182436 | 73 | 162 | 0.0 | 0.0 | 0.00 | 0.15 | 0.15 | 93 | 1017.1 |
| 20260904181930 | 73 | 63 | 0.0 | 0.0 | 0.00 | 0.15 | 0.15 | 93 | 1017.7 |
| 20260904181425 | 73 | 70 | 1.0 | 1.0 | 0.00 | 0.15 | 0.15 | 92 | 1017.4 |
| 20260904180920 | 73 | 3 | 0.0 | 0.0 | 0.00 | 0.15 | 0.15 | 91 | 1017.6 |
| 20260904180415 | 73 | 342 | 2.0 | 2.0 | 0.00 | 0.15 | 0.15 | 91 | 1018.2 |
| 20260904175915 | 74 | 245 | 1.0 | 1.0 | 0.00 | 0.15 | 0.15 | 91 | 1018.4 |
| 20260904175414 | 74 | 333 | 2.0 | 2.0 | 0.00 | 0.15 | 0.15 | 91 | 1019.0 |
| 20260904174913 | 74 | 181 | 2.0 | 2.0 | 0.00 | 0.15 | 0.15 | 90 | 1019.1 |
| 20260904174409 | 75 | 326 | 2.0 | 2.0 | 0.00 | 0.15 | 0.15 | 90 | 1018.9 |
| 20260904173905 | 75 | 39 | 1.0 | 1.0 | 0.00 | 0.15 | 0.15 | 90 | 1019.0 |
| 20260904173400 | 74 | 26 | 1.0 | 1.0 | 0.00 | 0.15 | 0.15 | 92 | 1019.1 |
| 20260904172856 | 74 | 2 | 2.0 | 2.0 | 0.00 | 0.15 | 0.15 | 92 | 1019.1 |
| 20260904172355 | 74 | 265 | 0.0 | 1.0 | 0.00 | 0.15 | 0.15 | 93 | 1019.2 |
| 20260904171850 | 73 | 312 | 3.0 | 6.0 | 0.00 | 0.15 | 0.15 | 94 | 1019.1 |
| 20260904171345 | 73 | 291 | 3.0 | 3.0 | 0.00 | 0.15 | 0.15 | 93 | 1019.1 |
| 20260904170842 | 73 | 262 | 2.0 | 2.0 | 0.00 | 0.15 | 0.15 | 94 | 1019.1 |
| 20260904170337 | 73 | 307 | 2.0 | 1.0 | 0.00 | 0.15 | 0.15 | 93 | 1018.9 |
| 20260904165832 | 73 | 180 | 2.0 | 2.0 | 0.00 | 0.15 | 0.15 | 95 | 1019.1 |
| 20260904165325 | 73 | 297 | 2.0 | 2.0 | 0.00 | 0.15 | 0.15 | 95 | 1018.8 |
| 20260904164821 | 73 | 218 | 1.0 | 1.0 | 0.05 | 0.15 | 0.15 | 95 | 1019.2 |
| 20260904164314 | 72 | 223 | 1.0 | 2.0 | 0.05 | 0.15 | 0.15 | 95 | 1019.4 |
| 20260904163811 | 72 | 355 | 3.0 | 3.0 | 0.07 | 0.14 | 0.14 | 94 | 1019.0 |
| 20260904163306 | 72 | 83 | 1.0 | 2.0 | 0.07 | 0.14 | 0.14 | 94 | 1019.0 |
| 20260904162805 | 72 | 41 | 2.0 | 2.0 | 0.00 | 0.13 | 0.13 | 94 | 1019.3 |
| 20260904162301 | 73 | 319 | 3.0 | 3.0 | 0.00 | 0.13 | 0.13 | 94 | 1019.3 |
| 20260904161755 | 73 | 33 | 0.0 | 1.0 | 0.00 | 0.13 | 0.13 | 94 | 1019.4 |
| 20260904161250 | 73 | 263 | 2.0 | 2.0 | 0.00 | 0.13 | 0.13 | 94 | 1019.2 |
| 20260904160746 | 73 | 27 | 2.0 | 2.0 | 0.00 | 0.13 | 0.13 | 94 | 1019.4 |
| 20260904160241 | 73 | 293 | 3.0 | 5.0 | 0.07 | 0.13 | 0.13 | 95 | 1019.6 |
| 20260904155741 | 73 | 294 | 3.0 | 5.0 | 0.07 | 0.13 | 0.13 | 95 | 1019.4 |
| 20260904155240 | 73 | 145 | 1.0 | 1.0 | 0.00 | 0.12 | 0.12 | 97 | 1019.4 |
| 20260904154738 | 73 | 353 | 2.0 | 2.0 | 0.00 | 0.12 | 0.12 | 98 | 1019.5 |
| 20260904154234 | 73 | 304 | 3.0 | 3.0 | 0.00 | 0.12 | 0.12 | 98 | 1019.2 |
| 20260904153730 | 72 | 10 | 1.0 | 1.0 | 0.00 | 0.12 | 0.12 | 98 | 1019.0 |
| 20260904153225 | 71 | 313 | 2.0 | 2.0 | 0.00 | 0.12 | 0.12 | 98 | 1018.7 |
| 20260904152721 | 71 | 44 | 1.0 | 1.0 | 0.00 | 0.12 | 0.12 | 98 | 1018.2 |
| 20260904152216 | 71 | 86 | 1.0 | 1.0 | 0.00 | 0.12 | 0.12 | 98 | 1018.1 |
| 20260904151711 | 71 | 159 | 2.0 | 2.0 | 0.00 | 0.12 | 0.12 | 98 | 1017.8 |
| 20260904151210 | 71 | 166 | 1.0 | 2.0 | 0.00 | 0.12 | 0.12 | 98 | 1018.0 |
| 20260904150706 | 71 | 180 | 1.0 | 1.0 | 0.00 | 0.12 | 0.12 | 98 | 1017.9 |
| 20260904150201 | 71 | 91 | 2.0 | 2.0 | 0.00 | 0.12 | 0.12 | 98 | 1018.1 |
| 20260904145700 | 70 | 175 | 1.0 | 1.0 | 0.00 | 0.12 | 0.12 | 98 | 1018.5 |
| 20260904145155 | 70 | 94 | 0.0 | 0.0 | 0.00 | 0.12 | 0.12 | 98 | 1018.7 |
| 20260904144650 | 70 | 94 | 0.0 | 0.0 | 0.05 | 0.12 | 0.12 | 98 | 1018.7 |
| 20260904144146 | 69 | 135 | 0.0 | 0.0 | 0.17 | 0.12 | 0.12 | 98 | 1018.6 |
| 20260904143642 | 69 | 105 | 0.0 | 0.0 | 0.19 | 0.11 | 0.11 | 98 | 1018.6 |
| 20260904143138 | 69 | 117 | 0.0 | 0.0 | 0.12 | 0.09 | 0.09 | 98 | 1018.6 |
| 20260904142634 | 69 | 118 | 0.0 | 0.0 | 0.05 | 0.08 | 0.08 | 98 | 1018.6 |
| 20260904142129 | 69 | 89 | 0.0 | 0.0 | 0.12 | 0.08 | 0.08 | 98 | 1018.7 |
| 20260904141624 | 69 | 168 | 0.0 | 0.0 | 0.19 | 0.07 | 0.07 | 98 | 1018.9 |
| 20260904141120 | 69 | 170 | 0.0 | 0.0 | 0.07 | 0.05 | 0.05 | 98 | 1018.9 |